Погода в Омске

Погода в Омске : погода сейчас, прогноз погоды и архив. Всё, что Вы хотите узнать о погоде в Омске!

Хотите узнать прогноз погоды в Омске? Тогда Вам сюда: Погода в Омске

Поиск расширенной информации на нашем сайте:

Другие новости

Новости СМИ2

Главная страница сайта

Новости сайта

02.10.2013

Напоминаем, что на нашем новом сайте вы можете получить высокодетализированные прогнозы погоды по пунктам России, СНГ и мира (включающие важные для авиации метеовеличины, такие как направление и скорость ветра, видимость, явления погоды, количество и форма облачности, нижняя и верхняя граница облачности), а также ознакомиться с разнообразными материалами по авиационной метеорологии и подборкой полезных ссылок на эту тему.

Сайт Метеоцентр.Азия посвящён разработке технологий оптимизации авиаметеорологического обслуживания, включая проектирование и перспективное создание нескольких автоматизированных авиаметеорологических систем:
- система выпуска высокодетальных прогностических карт явлений погоды для нижнего воздушного пространства по России и ближнему зарубежью;
- система верификации прогнозов TAF (выпускаемых синоптиками официальных АМСГ РФ и ближнего зарубежья) и AUTOTAF (выпускаемых сайтом Метеоцентр.Азия) - выявление ошибок, онлайн-сопоставление с фактической погодой METAR, автоматическое внесение коррективов в прогнозы при резком отклонении фактической погоды от прогноза, подсчёт оправдываемости прогнозов по элементам и в целом;
- система обработки, анализа и отображения авиаметеорологической информации для применения провайдерами метеорологической информации.

Рекомендуем: Оптовка: печное литье балезино.

Погода в Омске - сегодня

Время (UTC), дата Ветер
(°,м/с) 
Видим.   Явления Облачность Т
(°С)
Тd
(°С)
f(%) Тe
(°С)
Pmin
(гПа)
dP
(гПа)
Po
(мм)
O2
(г/м3)
Тmin Tmax R s Состояние
почвы
03 21.02.17 240 (ЮЗ) 20000 м  позёмок{ливн. осадки}  10/10 480 м кучево-дожд. 
[Cb cap]
-0.3 -2.4 86 -3  1005.5  0.2  743  300  -10    68  равномерный
сухой снег
100% 
06 21.02.17 240 (ЮЗ) 4{11}  9000 м  метель{ливн. осадки}  10/10 450 м кучево-дожд. 
[Cb cap]
+0.1 -3 80 -2  1005.9  0.4  743  300           
09 21.02.17 250 (З) 5-10{13}  9000 м  метель  10/10 450 м кучево-дожд. 
[Cb cap]
+0.1 -2.7 81 -3  1006.7  0.8  744  300           
12 21.02.17 250 (З) 6-11{12}  9000 м  метель  10/10 420 м кучево-дожд. 
[Cb cap]
+0.1 -2.8 81 -3  1008.3  1.5  745  300           
15 21.02.17 240 (ЮЗ) 5-12{14}  4000 м  метель  10/10 570 м кучево-дожд. 
[Cb cap]
-0.1 -3.8 76 -3  1009.4  1.2  746  301    +0.3       
18 21.02.17 240 (ЮЗ) 4{14}  4000 м  метель  10/10 540 м кучево-дожд. 
[Cb cap]
-0.1 -3.4 78 -3  1010.5  1.1  746  301           
21 21.02.17 240 (ЮЗ) 4{12}  4000 м  слаб. ливневой снег  10/10 420 м кучево-дожд. 
[Cb cap]
-0.7 -3.5 81 -3  1011.5  0.9  747  302           
00 22.02.17 240 (ЮЗ) 4{12}  10 км  позёмок{ливн. осадки}  10/10 420 м кучево-дожд. 
[Cb cap]
-1.4 -3.6 85 -4  1013.2  1.7  748  304           
03 22.02.17 240 (ЮЗ) 4{11}  20000 м  позёмок{ливн. осадки}  10/10 330 м кучево-дожд. 
[Cb cap]
-1.4 -4.3 81 -4  1014.5  1.2  749  304  -1.6    0.2  66  равномерный
сухой снег
100% 
06 22.02.17 230 (ЮЗ) 4{10}  20000 м  позёмок{ливн. осадки}  10/10 240 м кучево-дожд. 
[Cb cap]
-1.7 -4.3 82 -4  1016.4  1.8  751  305  -1.7         
09 22.02.17 230 (ЮЗ) 4{10}  20000 м  позёмок  3/0 верхняя 
[Ci fib]
-1.7 -6.3 71 -4  1017.4  751  305           
12 22.02.17 230 (ЮЗ) 4{10}  20000 м    10/0 верхняя 
[Ci fib]
-1.5 -5.1 76 -4  1018.5  1.2  752  305           
15 22.02.17 230 (ЮЗ) 10 км  позёмок  10/0 средняя 
[Ac und]
-0.5 -4.7 73 -3  1019.8  1.3  753  305    -0.5       
18 22.02.17 230 (ЮЗ) 10 км    10/0 верхняя 
[Ci fib]
-0.8 -5.7 69 -3  1020.8  754  305           
21 22.02.17 220 (ЮЗ) 10 км    ясно 
-2.3 -6 76 -4  1021.9  755  307           
00 23.02.17 220 (ЮЗ) 10 км    ясно 
-4.5 -7.6 79 -6  1023.1  1.1  756  310           
03 23.02.17 220 (ЮЗ) 20000 м    10/0 верхняя 
[Ci fib]
-6.1 -9.1 79 -8  1024.2  756  313  -6.4      66  равномерный
сухой снег
100% 
06 23.02.17 210 (ЮЗ) 20000 м    8/0 верхняя 
[Ci fib]
-4.3 -10.2 63 -6  1024.9  0.8  757  311           
09 23.02.17 100 (В) 20  0200 м    1/0 <0100 м верхняя 
[Ci fib]
-10.1   1024.7  -0.1  757             
12 23.02.17 190 (Ю) 20000 м    4/0 верхняя 
[Ci fib]
-5 -10.5 65 -6  1024.9  757  312           
15 23.02.17 190 (Ю) 10 км    ясно 
-8.1 -11.4 77 -8  1025  -0.1  757  315    -1.7       
18 23.02.17 190 (Ю) 10 км    ясно 
-9.6 -12 83 -11  1024.3  -0.8  756  317           
21 23.02.17 200 (Ю) 10 км    ясно 
-10.2 -11.9 87 -12  1023.3  -1.1  755  317           
00 24.02.17 180 (Ю) 10 км    ясно 
-11.4 -12.9 89 -11  1022.3  -1  755  319           
03 24.02.17 190 (Ю) 20000 м    ясно 
-12.1 -13.9 86 -14  1022.1  -0.3  754  319  -13.3      65  равномерный
сухой снег
100% 
Время (UTC), дата Ветер
(°,м/с) 
Видим.   Явления Облачность Т
(°С)
Тd
(°С)
f(%) Тe
(°С)
Pmin
(гПа)
dP
(гПа)
Po
(мм)
O2
(г/м3)
Тmin Tmax R s Состояние
почвы

Для получения пояснительной информации подведите курсор к названию столбца.

ПОГОДА в Омске - архив

Всё, что Вы хотите узнать о погоде в Омске - удобно и подробно!

Выберите нужную дату (начиная с 1 января 2015* года) и нажмите кнопку "Найти".
Будут отображены архивные сводки погоды по пункту Омск, начиная с указанной даты.


Отображать данные в формате CSV (для использования в таблицах Excel)


Внимание! Наш архив погоды предназначен исключительно для личного некоммерческого использования в познавательных целях. Если Вам необходимы официальные справки о состоянии погоды (для производственных, юридических, коммерческих и т.п. целей), обращайтесь в органы Росгидромета.

*Примечание: данная дата относится к архиву по метеостанциям СССР (Россия, СНГ, Балтия).
Архив по метеостанциям Зарубежной Европы и Азии (кроме Китая) хранится 10 дней, по другим регионам земного шара (Китай, Африка, Америка, Австралия, Океания) - 1 день.

Омск - район местоположения метеостанции


Название, широта, долгота, высота метеостанции:
Омск (город) 55°ш. 73.4°д. 122 м над ур. моря [Российская Федерация]

Дополнительная информация

В oтличие oт бoльшинства пoгoдных сайтoв мы публикуем пoдрoбную метеoинфoрмацию в детальнoм прoфессиoнальнoм фoрмате.

Характеристики температуры и влажнoсти вoздуха измеряются на высoте 2 м в тени вдали oт зданий и деревьев.
Скoрoсть ветра измеряется на высoте 10 м (на урoвне рoста челoвека скoрoсть ветра ниже в 1.5-2 раза). Если метеoстанция нахoдится в гoрoде или в лесу, тo скoрoсть ветра занижена на 2-4 м/с пo сравнению с oткрытым местoм. Скoрoсть ветра над акватoриями крупных рек и oзёр, а также на вершинах хoлмoв на 2-5 м/с выше, чем в oбычных услoвиях.
Атмoсфернoе давление в разных тoчках местнoсти мoжет значительнo oтличаться oт давления на метеoстанции, в зависимoсти oт услoвий рельефа (при пoдъёме на 10 м давление пoнижается примернo на 1 мм рт.ст.).